Location: Lombard
(41.8800°N, 88.0080°W)
Time: 10:45:36
(UTC-06:00)

Transit 4A - All Passes

Search period start: 29 January 2023 00:00
Search period end: 08 February 2023 00:00
Orbit: 871 x 973 km, 66.8° (Epoch: 28 January)

Date Brightness Start Highest point End Pass type
(mag) Time Alt. Az. Time Alt. Az. Time Alt. Az.
29 Jan - 02:44:09 10° NNW 02:49:32 34° NE 02:55:00 10° ESE visible
29 Jan - 04:30:21 10° NW 04:35:58 44° WSW 04:41:43 10° S visible
29 Jan - 17:51:31 10° S 17:56:53 39° ESE 18:02:15 10° NE visible
29 Jan - 19:37:56 10° WSW 19:43:14 35° NW 19:48:34 10° NNE visible
30 Jan - 01:09:05 10° NNE 01:11:03 12° NNE 01:13:01 10° NE night (unlit)
30 Jan - 02:53:10 10° NNW 02:58:55 48° NE 03:04:47 10° SE visible
30 Jan - 04:39:56 10° NW 04:45:00 29° WSW 04:50:11 10° SSW visible
30 Jan - 18:00:16 10° SSW 18:05:59 59° ESE 18:11:41 10° NE visible
30 Jan - 19:47:54 10° W 19:52:42 26° NW 19:57:30 10° N visible
31 Jan - 01:17:21 10° N 01:20:47 15° NE 01:24:13 10° ENE night (unlit)
31 Jan - 03:02:16 10° NNW 03:08:14 69° ENE 03:14:18 10° SE visible
31 Jan - 04:49:51 10° WNW 04:53:59 20° WSW 04:58:12 10° SSW visible
31 Jan - 16:27:29 10° SE 16:29:43 12° ESE 16:31:56 10° E daylight
31 Jan - 18:09:18 10° SSW 18:15:08 87° ESE 18:20:59 10° NNE visible
31 Jan - 19:58:11 10° W 20:02:15 19° NW 20:06:20 10° N visible
01 Feb - 01:26:02 10° N 01:30:24 21° NE 01:34:48 10° E night (unlit)
01 Feb - 03:11:27 10° NNW 03:17:27 83° WSW 03:23:35 10° SSE night (unlit)
01 Feb - 05:00:34 10° W 05:02:54 12° WSW 05:05:14 10° SW night (unlit)
01 Feb - 16:34:34 10° SSE 16:38:36 20° ESE 16:42:38 10° ENE daylight
01 Feb - 18:18:35 10° SW 18:24:22 64° WNW 18:30:10 10° NNE visible
01 Feb - 20:08:51 10° WNW 20:11:53 14° NW 20:14:57 10° N visible
02 Feb - 01:34:53 10° NNW 01:39:56 28° NE 01:45:04 10° ESE night (unlit)
02 Feb - 03:20:46 10° NW 03:26:37 57° WSW 03:32:35 10° SSE night (unlit)
02 Feb - 16:42:37 10° SSE 16:47:34 30° ESE 16:52:33 10° NE daylight
02 Feb - 18:28:08 10° SW 18:33:41 44° NW 18:39:15 10° NNE visible
02 Feb - 20:20:20 10° NW 20:21:38 11° NNW 20:22:56 10° NNW visible
03 Feb - 01:43:51 10° NNW 01:49:23 38° NE 01:55:01 10° ESE night (unlit)
03 Feb - 03:30:13 10° NW 03:35:42 38° WSW 03:41:18 10° S night (unlit)
03 Feb - 16:51:06 10° S 16:56:36 45° ESE 17:02:07 10° NE daylight
03 Feb - 18:37:56 10° WSW 18:43:05 32° NW 18:48:15 10° NNE visible
04 Feb - 00:08:26 10° N 00:11:01 13° NNE 00:13:36 10° ENE night (unlit)
04 Feb - 01:52:52 10° NNW 01:58:44 54° NE 02:04:42 10° SE night (unlit)
04 Feb - 03:39:54 10° NW 03:44:44 26° WSW 03:49:39 10° SSW night (unlit)
04 Feb - 16:59:57 10° SSW 17:05:42 68° ESE 17:11:30 10° NE daylight
04 Feb - 18:48:00 10° W 18:52:34 23° NW 18:57:09 10° N visible
05 Feb - 00:16:54 10° N 00:20:42 17° NE 00:24:32 10° ENE night (unlit)
05 Feb - 02:02:01 10° NNW 02:08:01 78° ENE 02:14:09 10° SE night (unlit)
05 Feb - 03:49:58 10° WNW 03:53:40 17° WSW 03:57:25 10° SW night (unlit)
05 Feb - 15:26:21 10° SE 15:29:22 15° ESE 15:32:23 10° ENE daylight
05 Feb - 17:09:04 10° SSW 17:14:54 83° WNW 17:20:45 10° NNE daylight
05 Feb - 18:58:24 10° W 19:02:09 17° NW 19:05:55 10° N visible
06 Feb - 00:25:40 10° N 00:30:18 23° NE 00:35:00 10° E night (unlit)
06 Feb - 02:11:14 10° NNW 02:17:13 74° WSW 02:23:20 10° SSE night (unlit)
06 Feb - 04:01:41 10° W 04:02:34 10° W 04:03:25 10° WSW night (unlit)
06 Feb - 15:33:52 10° SSE 15:38:17 23° ESE 15:42:41 10° ENE daylight
06 Feb - 17:18:26 10° SW 17:24:09 57° NW 17:29:54 10° NNE daylight
06 Feb - 19:09:14 10° WNW 19:11:49 13° NNW 19:14:26 10° N visible
07 Feb - 00:34:33 10° NNW 00:39:48 31° NE 00:45:08 10° ESE night (unlit)
07 Feb - 02:20:35 10° NW 02:26:21 50° WSW 02:32:14 10° S night (unlit)
07 Feb - 15:42:05 10° S 15:47:16 34° ESE 15:52:27 10° NE daylight
07 Feb - 17:28:04 10° WSW 17:33:29 39° NW 17:38:58 10° NNE daylight
07 Feb - 22:59:55 10° NNE 23:01:12 11° NNE 23:02:29 10° NE night (unlit)
